Reflectivity
-20 -20 -20 -20 -20 -20 -20 -20 -20 -20 -20 -20 -20 -20 -7 34 29 -2 -1 -19 -20 -20 -20 -20 -20 -20 -20 -20 -20 -20 -20 -20 -20 -20 -20 -20 -20 -20 -20 -20 -20 -20 -20 -20 -20 -20 -20 -20 -20
-20 -20 -20 -20 -20 -20 -20 -20 -20 -20 -20 -20 -20 -20 -20 -20 2 -20 -19 -20 -20 -20 -20 -20 -20 -20 -20 -20 -20 -20 -20 -20 -20 -20 -20 -20 -20 -20 -20 -20 -20 -20 -20 -20 -20 -20 -20 -20 -20
-20 -20 -20 -20 -20 -20 -20 -20 -20 -20 -20 -20 -20 -20 -20 -20 -20 -20 -20 -20 -20 -20 -20 -20 -20 -20 -20 -20 -20 -20 -20 -20 -20 -20 -20 -20 -20 -20 -20 -20 -20 -20 -20 -20 -20 -20 -20 -20 -20
-20 -20 -20 -20 -20 -20 -20 -20 -20 -20 -20 -20 -20 -20 -20 -20 -20 -20 -20 -20 -20 -20 -20 -20 -20 -20 -20 -20 -20 -20 -20 -20 -20 -20 -20 -20 -20 -20 -20 -20 -20 -20 -20 -20 -20 -20 -20 -20 -20
-20 -20 -20 -20 -20 -20 -20 -20 -20 -20 -20 -20 -20 -20 -20 -20 -20 -20 -20 -20 -20 -20 -20 -20 -20 -20 -20 -20 -20 -20 -20 -20 -20 -20 -20 -20 -20 -20 -20 -20 -20 -20 -20 -20 -20 -20 -20 -20 -20
-20 -20 -20 -20 -20 -20 -20 -20 -20 -20 -20 -20 -20 -20 -20 -20 -20 -20 -20 -20 -20 -20 -20 -20 -20 -20 -20 -20 -20 -20 -20 -20 -20 -20 -20 -20 -20 -20 -20 -20 -20 -20 -20 -20 -20 -20 -20 -20 -20
-20 -20 -20 -20 -20 -20 -20 -20 -20 -20 -20 -20 -20 -20 -20 -20 -20 -20 -20 -20 -20 -20 -20 -20 -20 -20 -20 -20 -20 -20 -20 -20 -20 -20 -20 -20 -20 -20 -20 -20 -20 -20 -20 -20 -20 -20 -20 -20 -20
-20 -20 -20 -20 -20 -20 -20 -20 -20 -20 -20 -20 -20 -20 -20 -20 -20 -20 -20 -20 -20 -20 -20 -20 -20 -20 -20 -20 -20 -20 -20 -20 -20 -20 -20 -20 -20 -20 -20 -20 -20 -20 -20 -20 -20 -20 -20 -20 -20
-6 -11 -20 -20 -20 -20 -20 -20 -20 -20 -20 -20 -20 -20 -20 -20 -20 -20 -20 -20 -20 -20 -20 -20 -20 -20 -20 -20 -20 -20 -20 -20 -20 -20 -20 -20 -20 -20 -20 -20 -20 -20 -20 -20 -20 -20 -20 -20 -20
-20 -20 -20 -20 -20 -20 -20 -20 -20 -20 -20 -20 -20 -20 -20 -20 -20 -20 -20 -20 -20 -20 -20 -20 -20 -20 -20 -20 -20 -20 -20 -20 -20 -20 -20 -20 -20 -20 -20 -20 -20 -20 -20 -20 -20 -20 -20 -20 -20
10 -15 -20 -3 -19 -20 -20 -20 -20 -20 -20 -20 -20 -20 -20 -20 -20 -20 -20 -20 -20 -20 -20 -20 -20 -20 -20 -20 -20 -20 -20 -20 -20 -20 -20 -20 -20 -20 -20 -20 -20 -20 -20 -20 -20 -20 -20 -20 -20
-12 5 -16 -20 -20 -20 -20 -20 -20 -20 -20 -20 -20 -20 -20 -20 -20 -20 -20 -20 -20 -20 -20 -20 -20 -20 -20 -20 -20 -20 -20 -20 -20 -20 -20 -20 -20 -20 -20 -20 -20 -20 -20 -20 -20 -20 -20 -20 -20
-20 -20 -1 -1 -20 -11 -19 -20 -20 -20 -20 -20 -20 -20 -20 -20 -20 -20 -20 -20 -20 -20 -20 -20 -20 -20 -20 -20 -20 -20 -20 -20 -20 -20 -20 -20 -20 -20 -20 -20 -20 -20 -20 -20 -20 -20 -20 -20 -20
-20 -20 -20 -7 7 -20 -20 -20 -20 -20 -20 -20 -20 -20 -20 -20 -20 -20 -20 -20 -20 -20 -20 -20 -20 -20 -20 -20 -20 -20 -20 -20 -20 -20 -20 -20 -20 -20 -20 -20 -20 -20 -20 -20 -20 -20 -20 -20 -20
-20 -20 -20 -20 -19 6 -13 -20 -20 -20 -20 -20 -20 -20 -20 -20 -20 -20 -20 -20 -20 -20 -20 -20 -20 -20 -20 -20 -20 -20 -20 -20 -20 -20 -20 -20 -20 -20 -20 -20 -20 -20 -20 -20 -20 -20 -20 -20 -20
-20 -20 -20 -20 -20 -20 -5 -6 -20 -20 -20 -20 -20 -20 -20 -20 -20 -20 -20 -20 -20 -20 -20 -20 -20 -20 -20 -20 -20 -20 -20 -20 -20 -20 -20 -20 -20 -20 -20 -20 -20 -20 -20 -20 -20 -20 -20 -20 -20
-20 -20 -20 -20 -20 -20 -20 -20 -20 15 -8 -20 -20 -20 -20 -20 -20 -20 -20 -20 -20 -20 -20 -20 -20 -20 -20 -20 -20 -20 -20 -20 -20 -20 -20 -20 -20 -20 -20 -20 -20 -20 -20 -20 -20 -20 -20 -20 -20
-20 -20 -20 -20 -20 -20 -20 -20 -20 -11 5 11 -19 -20 -20 -20 -20 -20 -20 -20 -20 -20 -20 -20 -20 -20 -20 -20 -20 -20 -20 -20 -20 -20 -20 -20 -20 -20 -20 -20 -20 -20 -20 -20 -20 -20 -20 -20 -20
-20 -20 -20 -20 -20 -20 -20 -20 -20 -4 -4 -11 -20 -16 -20 -20 -20 -14 -20 -20 -20 -20 -20 -20 -20 -20 -20 -20 -20 -20 -20 -20 -20 -20 -20 -20 -20 -20 -20 -20 -20 -20 -20 -20 -20 -20 -20 -20 -20
-20 -20 -20 -20 -20 -7 -4 -19 -20 -18 2 -2 -18 -20 -12 7 -19 -2 -13 -20 -20 -20 -20 -20 -20 -20 -20 -20 -20 -20 -20 -20 -20 -20 -20 -20 -20 -20 -20 -20 -20 -20 -20 -20 -20 -20 -20 -20 -20
-20 -20 -20 -20 -8 7 16 -15 -20 -20 -20 -19 -16 -20 -20 -19 -15 -20 -20 -19 -20 -20 -20 5 -20 -20 -20 -20 -20 -20 -20 -20 -20 -20 -20 -20 -20 -20 -20 -20 -20 -20 -20 -20 -20 -20 -20 -20 -20
-20 -5 -13 -20 -17 5 19 15 -20 -20 -20 -20 -20 -20 -20 -20 -16 -20 -20 3 -2 -11 -13 -20 -20 -20 -20 -20 -20 -20 -20 -20 -20 -20 -20 -20 -20 -20 -20 -20 -20 -20 -20 -20 -20 -20 -20 -20 -20
-20 -20 -14 6 -14 -20 7 23 -8 -20 -20 -20 -20 -20 -20 -20 9 -1 -20 -20 -7 -15 -11 1 -20 6 -19 -13 -19 -20 -20 -20 -20 -20 -20 -20 -20 -20 -20 -20 -20 -20 -20 -20 -20 -20 -20 -20 -20
-19 -20 -14 14 30 -1 -4 12 -9 -20 -20 -19 -20 -20 -20 -20 -20 -10 -18 -20 -20 -20 -20 -13 -1 20 16 6 15 1 -20 -20 -20 -20 -20 -20 -20 -20 -20 -20 -20 -20 -20 -20 -20 -20 -20 -20 -20
11 12 17 9 22 29 -16 -20 -10 -20 -20 -20 -5 0 -20 -20 -20 -20 -20 -20 -20 -20 -20 -20 -4 -2 -20 -20 -20 -20 -14 -20 -20 -20 -20 -20 -20 -20 -20 -20 -20 -20 -20 -20 -20 -20 -20 -20 -20
-0 -8 19 6 19 -20 -20 -20 -20 -20 -20 -18 -20 13 -5 -20 -14 -20 -20 -20 -20 -20 -20 -20 -20 -18 -20 -20 -20 -20 -20 -20 -20 -20 -20 -20 -20 -20 -20 -20 -20 -20 -20 -20 -20 -20 -20 -20 -20
-7 2 -8 23 -20 -5 -19 -12 -20 -20 -20 -20 -20 -17 -11 6 11 -20 -20 -20 -20 -20 -16 -18 -20 -20 -20 -16 4 3 -13 -20 -20 -20 -11 -11 -20 -20 -20 -20 -19 -20 -20 -20 -18 6 2 -6 -20
-9 -10 -6 15 21 5 9 -20 -20 -17 3 -16 -0 -3 -20 -20 -20 -20 -20 -20 2 8 7 -8 -20 -20 -20 -20 -20 -16 -20 -20 -20 -13 -10 -20 -17 -13 -20 -20 -20 -20 -20 -17 7 5 11 13 -13
20 24 14 14 5 16 10 -20 -15 14 -4 2 20 15 -11 -20 -20 -20 -20 -20 -20 -11 5 11 3 -20 -20 -20 -20 -20 -20 -20 -19 -18 -20 -20 4 0 -19 5 -18 -6 1 6 11 10 12 17 -1
-17 -20 0 12 25 15 17 -15 8 10 15 17 4 2 -20 -20 -20 -20 -20 -20 -20 -20 -20 -20 -18 -7 -13 -20 -20 -20 -20 -20 -20 -20 -20 -20 -20 -20 -20 -20 -15 2 10 13 15 14 16 10 -20
Wind_Speed
14 15 11 10 7 9 17 18 21 24 2 4 9 10 13 12 15 13 18 16 26 22 18 19 19 18 19 18 19 18 16 15 15 14 14 14 13 13 13 12 11 11 12 12 12 12 12 12 10
11 19 8 8 10 13 15 20 25 22 15 10 6 9 11 22 14 17 12 25 22 21 17 17 19 19 18 18 18 19 18 16 15 15 14 14 14 13 12 11 10 11 10 12 12 12 11 10 8
13 15 9 8 13 16 16 24 22 6 12 4 1 5 4 15 18 14 14 25 22 19 17 17 19 19 19 19 18 18 18 16 15 15 15 14 14 14 12 11 10 11 11 12 12 12 10 8 8
8 9 8 12 20 21 26 23 5 9 9 2 7 7 9 15 14 13 21 24 21 19 17 19 19 19 19 19 19 18 17 16 14 14 14 14 14 13 12 11 10 10 10 11 12 11 9 8 8
12 8 13 17 22 24 22 24 6 1 5 2 5 12 14 13 21 20 21 20 20 19 17 18 18 18 19 18 19 18 17 16 14 14 13 13 13 13 12 11 10 9 9 10 10 9 9 8 7
11 11 15 17 23 23 23 25 10 3 6 7 6 14 10 13 20 18 18 18 18 18 17 16 18 18 18 18 17 17 17 16 15 13 13 13 12 12 11 10 10 9 9 10 9 9 9 8 6
15 14 19 23 23 22 24 21 7 7 9 13 8 6 10 15 16 19 17 16 16 18 17 14 14 15 16 15 15 15 16 16 14 13 12 12 12 11 11 10 9 9 9 9 9 8 8 7 6
13 14 25 23 20 26 23 16 13 10 14 8 3 1 11 18 17 17 17 15 14 16 15 14 14 14 12 11 13 15 15 14 14 13 12 11 11 10 10 10 9 10 9 9 8 8 8 7 5
17 15 18 27 26 20 23 6 8 5 15 5 5 11 12 16 17 17 16 13 14 13 15 13 13 13 13 13 11 12 13 13 12 12 11 10 6 8 9 9 12 9 9 8 8 8 7 6 5
18 15 28 22 22 22 25 18 10 12 14 10 6 10 9 13 16 17 18 17 16 16 16 13 13 14 12 11 12 10 11 8 8 9 9 7 6 7 10 9 11 11 9 8 8 7 7 6 5
17 25 20 22 25 25 25 22 7 14 16 15 13 12 11 14 16 16 17 17 16 16 13 15 13 13 13 11 9 7 6 7 7 10 10 7 6 6 5 5 5 5 7 5 6 5 4 7 6
22 27 24 24 24 22 22 17 19 11 14 12 16 18 15 16 15 16 17 18 19 18 18 17 15 13 13 9 10 9 9 8 8 9 11 7 4 7 6 6 7 6 6 6 6 4 6 7 7
25 28 23 24 24 22 21 20 16 19 20 15 14 9 10 9 16 16 17 17 18 19 18 19 17 15 13 9 11 10 10 10 11 10 11 8 7 7 6 7 8 7 7 6 7 6 7 6 7
27 24 24 22 23 24 22 20 14 20 19 20 16 15 10 11 13 15 19 19 20 20 19 19 19 17 16 11 13 11 9 11 10 11 11 13 7 6 6 5 8 8 7 8 6 7 7 6 4
27 28 25 24 23 25 21 22 27 19 20 21 21 19 16 15 17 15 16 19 20 21 21 20 20 18 17 15 10 11 10 10 10 10 13 15 10 7 8 7 5 7 7 10 6 6 5 5 5
27 27 25 25 26 26 22 27 28 20 21 24 22 18 19 19 18 18 15 16 18 21 23 22 18 20 18 16 9 10 8 9 10 9 10 16 14 8 8 7 5 5 5 5 5 4 4 4 5
22 21 30 29 26 20 23 34 26 16 19 25 23 21 18 17 22 19 16 15 18 18 23 24 21 20 20 16 12 9 11 9 7 10 8 13 15 13 7 7 6 6 5 5 5 4 5 5 5
25 31 26 29 28 25 26 26 24 18 14 19 24 21 21 20 21 17 14 13 16 17 20 24 19 18 17 12 11 9 9 8 10 7 10 13 12 15 12 9 6 8 5 5 5 5 5 4 5
27 27 31 23 22 28 25 27 24 19 21 21 20 16 11 17 21 16 13 15 11 16 14 23 21 18 14 12 13 11 12 10 9 10 11 12 14 15 14 9 10 7 9 7 7 6 6 6 4
29 30 30 24 24 23 26 31 26 23 24 20 18 15 14 16 15 18 18 15 12 13 15 21 21 20 16 12 11 10 10 10 10 9 10 12 14 15 14 14 11 12 9 10 8 10 5 4 5
28 27 24 26 22 22 19 29 25 26 18 18 20 16 16 16 13 9 11 11 13 9 4 16 21 22 19 17 9 10 7 8 9 12 11 11 13 15 16 16 14 11 11 11 11 10 12 8 4
26 23 25 24 22 18 2 16 21 20 18 19 19 18 13 11 11 13 10 6 9 8 9 5 16 19 18 19 16 15 13 13 12 11 10 12 15 15 16 15 16 13 11 13 12 10 10 7 8
23 22 24 20 22 17 20 15 16 18 20 22 18 14 12 11 13 15 14 8 13 10 8 9 7 7 16 19 17 14 14 12 10 9 12 15 13 17 17 17 16 16 10 14 13 14 12 11 9
26 24 24 17 9 15 21 14 13 17 20 26 22 25 24 20 20 17 14 8 5 5 9 7 11 12 11 10 20 18 15 14 10 10 10 11 11 13 17 18 17 16 15 13 14 14 15 13 11
17 20 9 5 7 6 20 18 19 14 20 22 19 6 13 21 18 13 10 1 5 7 5 6 12 13 12 10 9 17 17 14 14 8 8 12 11 11 17 18 17 15 17 14 13 13 15 15 13
18 17 8 11 6 16 18 19 22 22 21 21 6 9 10 9 9 9 7 5 7 10 11 9 8 4 7 7 9 8 11 10 10 13 9 8 9 11 13 16 16 17 16 16 13 12 11 13 12
16 19 18 18 7 5 7 11 25 18 21 26 18 10 11 11 7 13 12 11 10 8 9 9 10 9 7 5 6 10 10 8 12 11 9 10 6 8 8 13 17 16 17 16 16 11 14 12 13
2 7 5 6 7 10 7 15 11 8 11 17 11 14 12 10 10 10 8 8 7 8 8 9 9 8 8 8 6 4 8 8 7 7 8 7 8 8 11 13 15 16 15 15 16 13 12 13 11
5 3 6 4 3 5 5 11 12 11 13 17 18 14 11 9 8 7 6 6 7 7 8 8 7 8 8 8 7 6 5 4 7 8 8 8 8 9 8 11 12 14 14 15 15 15 14 14 10
12 7 4 5 5 4 4 5 14 14 15 14 13 11 8 7 6 5 6 5 6 4 4 6 6 6 8 9 8 7 6 4 5 4 7 7 7 6 7 8 11 11 11 11 14 11 11 14 13
Wind_Direction
291 265 238 256 250 232 260 254 250 271 22 20 22 338 350 90 1 114 146 119 119 132 138 138 136 139 141 141 139 138 139 139 136 133 129 126 118 113 110 107 106 110 116 117 116 112 109 108 97
296 292 257 273 241 246 250 239 258 250 92 65 15 311 301 97 127 127 116 121 125 134 145 142 139 140 142 141 142 142 143 142 141 138 135 134 128 121 116 113 113 115 120 121 123 119 115 109 94
270 266 272 237 238 242 254 248 233 146 88 95 191 222 291 99 120 128 125 124 132 139 149 140 140 140 143 143 144 145 144 143 144 142 142 139 134 129 123 117 118 125 130 130 127 124 121 105 100
259 238 246 261 249 232 248 272 35 60 94 91 250 167 91 89 129 118 139 129 138 144 143 141 139 140 144 146 146 146 144 143 145 146 148 144 139 134 129 127 126 133 135 133 130 130 122 116 114
246 262 245 247 242 255 261 250 93 4 353 120 275 255 119 94 99 129 138 133 142 149 127 147 140 142 145 148 148 147 145 144 148 148 149 146 142 136 134 134 134 134 137 132 130 129 126 123 120
256 232 250 247 246 251 249 265 129 191 274 222 233 267 93 124 125 137 139 139 142 134 136 145 144 144 147 151 149 149 146 147 149 149 149 147 141 139 140 142 141 140 134 130 134 135 135 133 134
245 252 245 251 261 256 244 247 219 195 242 233 213 290 125 147 136 141 139 141 142 126 137 147 152 148 145 146 148 149 149 149 150 149 149 145 142 145 146 145 146 142 140 140 142 142 140 142 147
255 248 259 254 251 258 262 234 174 209 229 77 122 340 169 129 144 142 137 140 135 130 136 149 152 153 155 154 148 149 149 149 149 149 147 145 146 149 150 149 152 150 151 153 154 153 155 158 164
255 261 246 245 252 257 267 229 149 221 250 177 193 77 96 131 143 143 142 140 135 136 142 155 156 159 161 157 156 144 146 146 143 145 146 142 168 168 160 185 154 160 159 162 164 166 169 175 188
234 243 243 248 256 261 273 272 191 220 232 251 172 103 143 162 155 160 161 158 155 150 152 161 161 162 163 163 152 161 159 163 168 170 164 174 184 173 173 165 155 164 167 172 176 181 185 194 198
251 239 243 250 262 275 270 305 199 228 215 224 202 158 170 176 170 174 174 172 165 157 159 168 166 165 170 162 156 166 166 167 180 180 169 194 191 174 177 136 158 162 175 178 178 182 208 210 238
229 253 253 248 266 276 277 272 293 264 264 241 228 164 165 180 186 182 185 176 173 172 165 169 171 170 177 156 162 172 168 173 177 182 173 193 202 167 183 160 171 177 171 195 178 185 209 231 234
233 237 238 262 269 270 276 278 259 275 279 253 273 171 154 197 190 195 193 186 178 174 170 172 173 175 184 174 166 179 178 179 179 177 179 191 205 169 184 175 174 183 171 198 179 196 197 218 225
239 245 246 235 241 262 261 266 260 255 274 283 275 251 216 198 247 202 195 199 180 175 175 170 177 177 185 202 171 181 187 178 180 180 183 190 196 175 187 208 175 182 181 192 189 196 184 211 182
245 251 242 239 238 234 258 251 246 246 256 257 258 262 247 231 216 238 205 200 187 176 173 173 175 177 184 198 176 179 186 174 184 184 181 184 203 199 184 199 189 185 197 186 191 185 194 177 208
249 238 247 235 227 234 238 246 238 235 241 252 249 235 242 244 241 227 226 204 206 175 171 171 177 177 182 192 199 179 193 200 184 189 181 181 196 199 183 188 210 200 176 172 169 184 184 202 200
233 238 228 239 232 219 223 244 252 241 242 228 237 240 242 237 223 226 203 217 208 190 169 170 176 180 182 182 198 187 197 185 205 185 191 180 189 197 190 204 200 193 188 177 181 186 177 191 216
219 222 232 226 225 222 223 239 250 254 264 247 234 225 232 234 244 215 214 206 204 216 169 169 173 174 182 179 192 196 191 202 194 198 194 180 187 192 207 195 212 185 194 188 181 187 194 200 197
236 233 230 243 234 223 239 233 228 221 254 259 229 236 266 239 218 235 214 200 212 199 179 169 170 172 176 190 187 193 201 192 201 204 189 188 188 190 195 212 201 197 193 193 186 189 199 202 177
243 238 245 239 235 245 229 233 227 217 219 235 253 196 240 260 241 219 221 199 192 197 199 169 170 172 177 191 193 199 193 202 197 205 201 191 183 191 194 201 209 205 192 193 192 192 194 205 172
236 246 244 255 256 250 228 258 239 214 222 244 228 240 216 240 265 256 214 200 181 181 99 180 174 174 178 183 195 190 206 196 201 202 206 197 189 189 199 202 206 202 199 201 199 190 194 200 188
244 251 248 252 253 246 51 263 246 223 216 229 243 242 212 233 273 283 281 199 176 166 142 199 185 179 181 182 188 199 200 204 202 203 197 200 194 197 197 207 207 213 198 204 200 199 194 183 192
249 254 260 262 247 264 252 244 250 234 224 235 226 231 217 210 250 268 271 270 167 169 174 169 195 184 188 189 198 192 212 211 204 197 197 194 198 200 201 202 207 211 209 205 198 198 196 201 185
230 235 253 260 296 261 223 237 243 240 230 224 221 222 223 200 207 223 248 259 328 152 184 182 181 198 199 195 201 203 203 212 206 202 201 194 197 197 203 204 207 207 215 203 205 197 200 199 193
230 236 222 258 220 236 237 222 239 249 263 279 288 299 8 198 196 203 219 267 18 337 333 178 199 209 204 209 209 207 209 209 219 215 208 200 197 195 203 204 204 208 208 213 199 204 200 199 195
214 215 237 211 220 238 225 231 233 235 267 271 341 60 60 19 64 61 57 38 12 18 7 13 6 291 187 196 212 212 207 209 214 218 225 226 207 203 195 202 206 207 208 211 207 206 201 199 201
259 234 215 254 274 306 276 246 242 240 223 247 251 142 62 60 60 50 51 43 26 6 355 11 356 345 327 282 232 208 205 208 212 222 208 227 209 204 197 194 205 208 208 208 210 208 208 199 196
152 11 261 155 213 232 240 234 245 251 273 232 111 86 82 76 59 54 47 57 45 25 4 4 344 323 309 311 326 300 192 206 210 189 210 209 219 207 199 200 201 208 207 210 209 209 204 197 197
10 87 340 4 288 253 229 209 88 48 30 62 70 68 62 61 70 69 50 34 43 25 8 352 351 334 327 324 313 307 322 255 189 197 213 209 210 212 203 191 194 201 208 211 209 208 205 197 173
68 17 66 338 37 352 332 267 61 50 63 63 63 46 53 32 36 40 77 57 46 41 25 345 344 358 348 337 331 324 336 326 323 238 203 203 205 214 207 174 192 202 206 209 209 178 169 166 167